Weather History for KECS - March, 2014

Change the Weather History Date:

Thursday, March 20, 2014

  Actual Average (KCUT) Record (KCUT)
Temperature  
Mean Temperature 39 °F 32 °F  
Max Temperature 55 °F 43 °F 68 °F (2007)
Min Temperature 23 °F 22 °F -14 °F (1943)
Degree Days  
Heating Degree Days 26 33  
Month to date heating degree days 695  
Since 1 July heating degree days 6530  
Cooling Degree Days 0 0  
Month to date cooling degree days 0  
Year to date cooling degree days 0  
Moisture  
Dew Point 20 °F    
Average Humidity 56    
Maximum Humidity 93    
Minimum Humidity 18    
Precipitation  
Precipitation 0.00 in 0.04 in 0.50 in (1967)
Month to date precipitation 0.53  
Year to date precipitation 1.39  
Sea Level Pressure  
Sea Level Pressure 29.83 in    
Wind  
Wind Speed 7 mph (NNW)    
Max Wind Speed 34 mph    
Max Gust Speed 43 mph    
Visibility 10 miles    
Events      
T = Trace of Precipitation, MM = Missing Value Source: NWS Daily Summary

Daily Weather History Graph

Daily Weather History Graph

Search for Another Location

Airport or City:

Trip Planner

Search our weather history database for the weather conditions in past years. The results will help you decide how hot, cold, wet, or windy it might be!

Date:

Astronomy

Mar. 20, 2014 Rise Set
Actual Time 7:00 AM MDT 7:09 PM MDT
Civil Twilight 6:31 AM MDT 7:38 PM MDT
Nautical Twilight 5:57 AM MDT 8:12 PM MDT
Astronomical Twilight 5:23 AM MDT 8:46 PM MDT
Moon 11:40 PM MDT (3/20) 9:00 AM MDT (3/20)
Length of Visible Light 13h 06m
Length of Day
12h 09m
Waning Gibbous, 83% of the Moon is Illuminated
Mar 20
Waning Gibbous
Mar 23
Last Quarter
Mar 30
New
Apr 7
First Quarter
Apr 15
Full

Hourly Weather History & Observations

Time (MDT) Temp. Windchill Dew Point Humidity Pressure Visibility Wind Dir Wind Speed Gust Speed Precip Events Conditions
12:15 AM 28.4 °F - 21.2 °F 74% 29.90 in 10.0 mi Calm Calm - N/A   Clear
12:35 AM 26.6 °F - 21.2 °F 80% 29.90 in 10.0 mi Calm Calm - N/A   Clear
12:55 AM 28.4 °F 23.3 °F 21.2 °F 74% 29.90 in 10.0 mi North 4.6 mph - N/A   Clear
1:15 AM 28.4 °F 22.2 °F 21.2 °F 74% 29.90 in 10.0 mi North 5.8 mph - N/A   Clear
1:35 AM 28.4 °F 22.2 °F 21.2 °F 74% 29.91 in 10.0 mi North 5.8 mph - N/A   Clear
1:55 AM 28.4 °F 23.3 °F 21.2 °F 74% 29.91 in 10.0 mi North 4.6 mph - N/A   Clear
2:15 AM 28.4 °F 22.2 °F 21.2 °F 74% 29.91 in 10.0 mi North 5.8 mph - N/A   Clear
2:35 AM 26.6 °F 20.0 °F 21.2 °F 80% 29.90 in 10.0 mi North 5.8 mph - N/A   Clear
2:55 AM 26.6 °F 19.1 °F 21.2 °F 80% 29.90 in 10.0 mi North 6.9 mph - N/A   Clear
3:15 AM 26.6 °F 19.1 °F 21.2 °F 80% 29.90 in 10.0 mi NNE 6.9 mph - N/A   Clear
3:35 AM 26.6 °F 22.6 °F 21.2 °F 80% 29.90 in 10.0 mi North 3.5 mph - N/A   Clear
3:55 AM 26.6 °F - 21.2 °F 80% 29.90 in 10.0 mi Calm Calm - N/A   Clear
4:15 AM 26.6 °F - 21.2 °F 80% 29.90 in 10.0 mi Calm Calm - N/A   Clear
4:35 AM 24.8 °F - 21.2 °F 86% 29.90 in 10.0 mi North - - N/A   Clear
4:55 AM 26.6 °F - 21.2 °F 80% 29.90 in 10.0 mi Calm Calm - N/A   Clear
5:15 AM 23.0 °F - 19.4 °F 86% 29.90 in 10.0 mi Calm Calm - N/A   Clear
5:35 AM 23.0 °F - 21.2 °F 93% 29.90 in 10.0 mi Calm Calm - N/A   Clear
5:55 AM 24.8 °F - 21.2 °F 86% 29.90 in 10.0 mi Calm Calm - N/A   Clear
6:15 AM 26.6 °F - 21.2 °F 80% 29.90 in 10.0 mi Calm Calm - N/A   Clear
6:35 AM 23.0 °F 15.8 °F 21.2 °F 93% 29.90 in 10.0 mi East 5.8 mph - N/A   Clear
6:55 AM 26.6 °F - 21.2 °F 80% 29.90 in 10.0 mi Calm Calm - N/A   Clear
7:15 AM 28.4 °F - 21.2 °F 74% 29.90 in 10.0 mi Calm Calm - N/A   Clear
7:35 AM 26.6 °F 21.2 °F 21.2 °F 80% 29.89 in 10.0 mi East 4.6 mph - N/A   Clear
7:55 AM 30.2 °F - 23.0 °F 75% 29.89 in 10.0 mi Calm Calm - N/A   Clear
8:15 AM 30.2 °F - 24.8 °F 80% 29.89 in 10.0 mi Calm Calm - N/A   Clear
8:35 AM 32.0 °F - 26.6 °F 80% 29.89 in 10.0 mi Calm Calm - N/A   Clear
8:55 AM 32.0 °F - 28.4 °F 87% 29.87 in 10.0 mi Calm Calm - N/A   Clear
9:15 AM 35.6 °F 32.8 °F 26.6 °F 70% 29.87 in 10.0 mi SE 3.5 mph - N/A   Clear
9:35 AM 37.4 °F - 21.2 °F 52% 29.87 in 10.0 mi Calm Calm - N/A   Clear
9:55 AM 37.4 °F 34.9 °F 19.4 °F 48% 29.87 in 10.0 mi SSE 3.5 mph - N/A   Clear
10:15 AM 41.0 °F 36.4 °F 17.6 °F 39% 29.85 in 10.0 mi SSE 6.9 mph - N/A   Clear
10:35 AM 41.0 °F 36.4 °F 17.6 °F 39% 29.85 in 10.0 mi SSE 6.9 mph - N/A   Clear
10:55 AM 41.0 °F 34.3 °F 19.4 °F 42% 29.84 in 10.0 mi SSE 11.5 mph - N/A   Clear
11:15 AM 41.0 °F 34.3 °F 19.4 °F 42% 29.84 in 10.0 mi SSE 11.5 mph - N/A   Clear
11:35 AM 41.0 °F 34.7 °F 21.2 °F 45% 29.83 in 10.0 mi SE 10.4 mph - N/A   Clear
11:55 AM 42.8 °F 37.5 °F 21.2 °F 42% 29.82 in 10.0 mi South 9.2 mph - N/A   Clear
12:15 PM 44.6 °F 40.2 °F 19.4 °F 37% 29.81 in 10.0 mi SSE 8.1 mph - N/A   Clear
12:35 PM 44.6 °F 39.7 °F 19.4 °F 37% 29.80 in 10.0 mi SE 9.2 mph - N/A   Clear
12:55 PM 44.6 °F 38.8 °F 19.4 °F 37% 29.78 in 10.0 mi SE 11.5 mph - N/A   Clear
1:15 PM 46.4 °F 42.4 °F 21.2 °F 37% 29.78 in 10.0 mi SSE 8.1 mph 16.1 mph N/A   Clear
1:35 PM 50.0 °F - 19.4 °F 30% 29.76 in 10.0 mi SSE 5.8 mph - N/A   Clear
1:55 PM 50.0 °F - 19.4 °F 30% 29.74 in 10.0 mi SW 3.5 mph - N/A   Clear
2:15 PM 51.8 °F - 14.0 °F 22% 29.73 in 10.0 mi WSW 13.8 mph 17.3 mph N/A   Clear
2:35 PM 53.6 °F - 14.0 °F 21% 29.71 in 10.0 mi SW 15.0 mph - N/A   Clear
2:55 PM 53.6 °F - 14.0 °F 21% 29.70 in 10.0 mi West 9.2 mph - N/A   Clear
3:15 PM 55.4 °F - 14.0 °F 20% 29.69 in 10.0 mi West 17.3 mph 23.0 mph N/A   Clear
3:35 PM 55.4 °F - 14.0 °F 20% 29.68 in 10.0 mi West 17.3 mph 27.6 mph N/A   Clear
3:55 PM 55.4 °F - 12.2 °F 18% 29.68 in 10.0 mi West 21.9 mph - N/A   Clear
4:15 PM 55.4 °F - 14.0 °F 20% 29.68 in 10.0 mi West 17.3 mph 28.8 mph N/A   Clear
4:35 PM 55.4 °F - 15.8 °F 21% 29.67 in 10.0 mi West 18.4 mph 33.4 mph N/A   Clear
4:55 PM 55.4 °F - 14.0 °F 20% 29.67 in 10.0 mi West 20.7 mph 29.9 mph N/A   Clear
5:15 PM 53.6 °F - 14.0 °F 21% 29.67 in 10.0 mi West 17.3 mph 29.9 mph N/A   Clear
5:35 PM 55.4 °F - 14.0 °F 20% 29.67 in 10.0 mi NW 20.7 mph 25.3 mph N/A   Clear
5:55 PM 53.6 °F - 15.8 °F 22% 29.67 in 10.0 mi NW 17.3 mph - N/A   Clear
6:15 PM 50.0 °F - 21.2 °F 32% 29.69 in 10.0 mi North 18.4 mph 26.5 mph N/A   Clear
6:35 PM 44.6 °F 36.4 °F 23.0 °F 43% 29.72 in 10.0 mi North 20.7 mph 32.2 mph N/A   Clear
6:55 PM 42.8 °F 32.9 °F 26.6 °F 53% 29.74 in 10.0 mi NNW 26.5 mph 38.0 mph N/A   Clear
7:15 PM 37.4 °F 25.0 °F 28.4 °F 70% 29.78 in 10.0 mi NNW 29.9 mph 38.0 mph N/A   Clear
7:35 PM 35.6 °F 21.7 °F 28.4 °F 75% 29.80 in 10.0 mi NNW 34.5 mph 42.6 mph N/A   Scattered Clouds
7:55 PM 33.8 °F 20.5 °F 23.0 °F 65% 29.82 in 10.0 mi NNW 27.6 mph 40.3 mph N/A   Scattered Clouds
8:15 PM 33.8 °F 21.6 °F 21.2 °F 60% 29.84 in 10.0 mi NNW 23.0 mph 36.8 mph N/A   Clear
8:35 PM 33.8 °F 21.9 °F 19.4 °F 56% 29.85 in 10.0 mi North 21.9 mph 29.9 mph N/A   Clear
8:55 PM 33.8 °F 23.2 °F 19.4 °F 56% 29.86 in 10.0 mi NNW 17.3 mph 26.5 mph N/A   Clear
9:15 PM 33.8 °F 22.8 °F 17.6 °F 52% 29.87 in 10.0 mi North 18.4 mph 26.5 mph N/A   Clear
9:35 PM 33.8 °F 24.3 °F 17.6 °F 52% 29.87 in 10.0 mi North 13.8 mph 21.9 mph N/A   Clear
9:55 PM 33.8 °F 24.8 °F 17.6 °F 52% 29.87 in 10.0 mi North 12.7 mph 21.9 mph N/A   Clear
10:15 PM 33.8 °F 24.3 °F 17.6 °F 52% 29.89 in 10.0 mi NNW 13.8 mph - N/A   Clear
10:35 PM 32.0 °F 24.8 °F 15.8 °F 51% 29.90 in 10.0 mi NNW 8.1 mph - N/A   Clear
10:55 PM 32.0 °F 23.6 °F 15.8 °F 51% 29.90 in 10.0 mi NNW 10.4 mph - N/A   Scattered Clouds
11:15 PM 33.8 °F 25.8 °F 15.8 °F 48% 29.92 in 10.0 mi NW 10.4 mph 16.1 mph N/A   Scattered Clouds
11:35 PM 33.8 °F 25.3 °F 15.8 °F 48% 29.93 in 10.0 mi NW 11.5 mph 17.3 mph N/A   Scattered Clouds
11:55 PM 33.8 °F 22.5 °F 15.8 °F 48% 29.92 in 10.0 mi NW 19.6 mph 25.3 mph N/A   Scattered Clouds